Wind_Speed
27 24 21 19 17 16 15 14 12 10 7 4 3 2 2 3 4 5 7 8 11 13 15 17 18 19 20 20 20 20 22 23
25 24 21 19 18 17 16 15 13 11 8 7 6 4 3 2 3 4 6 9 12 13 15 17 18 19 20 21 24 24 21 23
29 27 24 21 19 18 17 15 13 11 10 9 7 6 4 2 1 5 8 10 12 13 14 15 16 17 18 18 19 21 21 22
34 31 27 23 20 18 15 14 13 13 12 10 8 7 4 1 2 4 6 9 12 13 14 14 15 15 15 16 17 17 18 17
34 33 29 25 21 18 15 14 15 15 13 10 8 5 4 3 3 4 7 10 11 12 13 13 14 14 13 14 16 17 16 16
36 34 29 25 20 17 16 16 15 12 11 10 9 8 6 5 4 6 8 10 10 10 10 11 11 12 13 13 14 15 16 16
32 33 29 26 23 19 18 17 13 11 10 10 9 8 7 5 4 4 7 8 9 10 9 8 9 9 10 11 13 12 12 13
31 38 35 29 24 23 20 16 15 15 14 13 11 10 8 5 4 5 5 8 8 9 9 9 9 9 10 10 11 12 11 11
28 36 33 29 27 24 23 23 21 19 16 14 11 9 6 6 7 6 6 6 7 8 8 9 9 10 10 10 9 10 10 10
28 34 34 32 30 28 23 20 17 16 15 12 9 8 7 6 6 6 5 5 7 8 8 9 9 9 9 9 8 8 8 9
23 31 34 33 28 23 22 21 19 16 15 12 9 8 7 7 7 5 5 6 6 7 7 8 9 9 8 8 8 7 7 8
23 28 31 31 29 28 26 24 20 18 14 11 9 7 6 5 5 5 5 6 6 6 7 7 7 8 8 7 7 8 8 8
17 27 32 34 33 31 28 25 20 16 15 12 10 7 7 5 5 6 5 5 5 5 5 5 6 6 6 7 7 8 8 9
21 28 33 34 35 33 30 26 22 21 17 13 10 8 7 7 7 6 6 4 3 4 4 4 5 5 5 6 7 8 9 10
21 28 34 36 36 35 32 29 28 21 17 15 12 10 7 8 7 7 6 4 3 2 2 4 4 4 4 5 6 7 9 10
22 25 31 32 33 36 36 35 28 23 21 18 13 11 9 10 9 7 5 5 2 1 1 2 3 3 3 4 5 6 8 10
26 25 26 29 33 36 40 34 29 25 23 19 15 14 12 11 8 6 6 6 3 2 0 2 3 3 3 3 4 6 8 10
17 16 17 21 27 33 34 33 29 28 24 19 16 13 11 10 8 8 8 6 4 2 1 1 3 4 5 3 4 6 8 10
12 11 12 16 21 22 25 31 31 29 25 20 16 13 13 11 10 11 8 7 5 4 2 1 4 6 8 6 6 7 8 10
Wind_Direction
201 201 200 199 197 195 192 192 193 189 182 175 180 200 161 98 63 35 20 12 5 357 352 344 339 334 330 324 321 317 311 304
202 201 200 198 195 193 192 191 188 186 190 188 186 179 147 85 41 27 12 11 7 359 351 346 341 337 334 329 326 323 319 312
203 201 198 197 200 197 194 191 194 196 200 201 188 175 176 165 44 15 12 2 359 354 353 353 351 347 341 337 333 332 332 329
200 197 196 197 199 199 196 199 205 209 210 209 195 186 189 147 15 0 351 350 350 353 354 356 357 356 354 354 354 350 347 344
202 197 196 198 199 197 200 207 212 212 207 195 192 197 213 250 302 328 342 346 348 350 354 359 1 3 9 11 14 10 6 359
206 202 200 197 195 197 200 204 205 202 197 196 204 215 220 246 289 328 338 341 344 348 357 359 1 2 5 9 13 13 12 13
204 200 197 194 193 195 201 201 195 194 200 207 219 227 235 255 284 304 324 328 335 339 348 357 356 354 351 358 1 1 6 11
195 195 193 194 193 197 195 190 193 195 203 209 213 225 234 252 288 308 326 331 338 342 344 354 353 354 351 355 356 349 354 0
194 195 195 198 197 191 192 192 195 196 201 212 217 228 255 279 285 300 322 323 336 342 344 357 353 350 346 348 359 349 352 350
198 196 195 200 197 195 193 196 199 207 212 210 226 239 249 266 281 285 295 333 335 337 343 349 344 346 344 343 354 351 346 348
199 196 198 202 200 195 197 200 204 206 211 213 219 234 246 253 260 290 329 327 329 329 337 350 343 341 341 343 349 351 353 349
202 199 205 205 201 201 203 202 206 206 206 214 221 231 241 253 280 283 307 311 323 334 343 341 340 338 336 342 348 351 354 352
216 210 211 210 209 206 207 207 207 209 212 216 222 226 260 257 261 281 293 300 320 319 330 338 339 338 340 345 352 356 357 356
229 224 223 221 213 211 208 208 212 216 208 208 218 221 223 233 248 262 275 283 300 306 325 344 344 338 341 349 359 4 3 2
246 233 231 226 219 215 211 210 214 210 213 209 210 212 216 239 248 260 261 257 256 283 338 350 351 353 355 357 4 7 9 7
272 254 236 229 220 215 211 215 211 212 213 208 209 208 210 223 233 240 241 239 230 276 335 359 1 356 1 8 8 11 13 11
282 268 241 228 222 219 216 213 210 212 213 211 206 201 206 214 220 226 227 219 201 202 33 18 11 352 348 347 8 15 16 16
274 260 244 231 223 224 218 213 211 211 210 204 206 204 208 214 215 214 209 201 197 194 186 38 36 23 8 6 18 20 16 14
258 252 240 227 225 222 216 212 210 210 204 202 201 202 214 208 209 203 196 197 196 198 191 51 33 15 26 26 26 19 15 12
Height
1506 1508 1509 1511 1513 1516 1519 1521 1524 1526 1527 1527 1527 1528 1527 1527 1527 1527 1526 1525 1523 1522 1519 1518 1515 1512 1511 1510 1508 1505 1501 1498
1503 1505 1507 1509 1510 1512 1515 1518 1521 1524 1525 1525 1524 1525 1526 1526 1526 1526 1525 1523 1522 1520 1519 1518 1515 1511 1507 1504 1503 1502 1498 1495
1496 1500 1503 1506 1509 1510 1513 1515 1518 1520 1522 1522 1522 1523 1525 1524 1524 1524 1523 1522 1520 1518 1517 1515 1514 1511 1508 1503 1500 1499 1496 1492
1488 1493 1498 1501 1504 1506 1510 1513 1515 1516 1519 1521 1522 1522 1524 1523 1522 1521 1522 1521 1520 1518 1516 1513 1512 1510 1506 1502 1498 1497 1494 1492
1483 1487 1492 1496 1500 1503 1507 1511 1512 1513 1516 1520 1522 1521 1522 1524 1523 1521 1520 1520 1519 1517 1515 1513 1512 1509 1506 1503 1497 1496 1495 1493
1479 1484 1490 1494 1499 1502 1505 1507 1510 1514 1516 1517 1519 1520 1520 1521 1521 1521 1520 1519 1518 1516 1512 1511 1510 1509 1506 1503 1499 1498 1496 1493
1475 1482 1487 1491 1496 1500 1502 1504 1507 1511 1515 1515 1518 1518 1518 1517 1516 1515 1516 1518 1518 1517 1514 1509 1509 1508 1506 1502 1499 1499 1497 1495
1468 1473 1480 1488 1491 1496 1501 1503 1505 1507 1510 1512 1512 1516 1515 1516 1517 1515 1513 1516 1515 1515 1514 1508 1507 1506 1506 1501 1499 1500 1497 1496
1468 1471 1478 1488 1490 1492 1497 1499 1500 1502 1505 1508 1509 1511 1514 1514 1515 1515 1512 1513 1514 1512 1512 1506 1506 1504 1505 1502 1496 1499 1496 1496
1465 1470 1474 1484 1486 1488 1493 1498 1501 1503 1506 1507 1508 1510 1511 1511 1513 1513 1510 1509 1510 1512 1510 1505 1506 1503 1503 1502 1498 1496 1497 1494
1467 1470 1473 1479 1487 1490 1493 1496 1498 1499 1504 1504 1506 1508 1508 1509 1511 1511 1509 1508 1507 1508 1507 1503 1504 1503 1502 1501 1498 1496 1494 1492
1465 1469 1472 1477 1482 1485 1489 1491 1494 1496 1498 1501 1504 1506 1508 1510 1509 1509 1505 1507 1506 1506 1504 1503 1503 1502 1501 1500 1497 1496 1493 1491
1469 1468 1470 1473 1478 1481 1485 1490 1492 1494 1494 1495 1500 1503 1505 1505 1508 1509 1506 1506 1504 1505 1503 1502 1501 1501 1500 1498 1496 1494 1493 1491
1464 1466 1468 1470 1473 1477 1479 1485 1490 1489 1491 1492 1496 1499 1502 1504 1505 1506 1506 1504 1503 1503 1502 1500 1500 1499 1499 1497 1495 1493 1492 1490
1459 1459 1459 1463 1466 1470 1476 1481 1483 1486 1488 1490 1493 1496 1498 1502 1504 1504 1504 1504 1501 1501 1500 1499 1499 1498 1497 1496 1494 1493 1491 1489
1452 1454 1456 1459 1462 1464 1469 1472 1478 1480 1484 1488 1490 1493 1495 1498 1500 1501 1502 1503 1499 1499 1499 1498 1497 1496 1496 1495 1494 1492 1491 1489
1450 1449 1449 1449 1455 1458 1462 1468 1472 1476 1480 1484 1487 1490 1491 1494 1496 1498 1500 1501 1498 1498 1497 1497 1496 1495 1495 1494 1493 1492 1490 1489
1443 1445 1446 1447 1450 1453 1457 1464 1469 1472 1477 1480 1485 1488 1489 1491 1492 1496 1499 1498 1497 1497 1497 1496 1495 1494 1493 1493 1492 1491 1489 1488
1440 1439 1442 1443 1447 1452 1456 1460 1464 1468 1472 1477 1481 1484 1488 1488 1490 1495 1495 1496 1496 1496 1496 1496 1494 1493 1493 1492 1491 1490 1488 1486